Time,TemperatureF,DewpointF,PressureIn,WindDirection,WindDirectionDegrees,WindSpeedMPH,WindSpeedGustMPH,Humidity,HourlyPrecipIn,Conditions,Clouds,dailyrainin,SolarRadiationWatts/m^2,SoftwareType,DateUTC
2013-02-10 00:01:00,65.0,61.0,-100.00,SSE,150,8.0,19.0,88,0.00,,,0.00,0.000000,,2013-02-10 06:01:00,
2013-02-10 00:32:00,65.0,62.0,-100.00,SE,144,6.0,15.0,89,0.00,,,0.00,0.000000,,2013-02-10 06:32:00,
2013-02-10 00:42:00,65.0,62.0,-100.00,SE,144,6.0,15.0,89,0.00,,,0.00,0.000000,,2013-02-10 06:42:00,
2013-02-10 00:52:00,65.0,62.0,-100.00,SE,144,6.0,15.0,89,0.00,,,0.00,0.000000,,2013-02-10 06:52:00,
2013-02-10 01:01:00,65.0,62.0,-100.00,SE,144,6.0,15.0,89,0.00,,,0.00,0.000000,,2013-02-10 07:01:00,
2013-02-10 01:32:00,65.0,63.0,-100.00,SE,132,6.0,12.0,92,0.00,,,0.00,0.000000,,2013-02-10 07:32:00,
2013-02-10 01:42:00,65.0,63.0,-100.00,SE,132,6.0,12.0,92,0.00,,,0.00,0.000000,,2013-02-10 07:42:00,
2013-02-10 01:52:00,65.0,63.0,-100.00,SE,132,6.0,12.0,92,0.00,,,0.00,0.000000,,2013-02-10 07:52:00,
2013-02-10 02:01:00,65.0,63.0,-100.00,SE,132,6.0,12.0,92,0.00,,,0.00,0.000000,,2013-02-10 08:01:00,
2013-02-10 02:32:00,66.0,64.0,-100.00,SE,145,6.0,14.0,93,0.00,,,0.00,0.000000,,2013-02-10 08:32:00,
2013-02-10 02:43:00,66.0,64.0,-100.00,SE,145,6.0,14.0,93,0.00,,,0.00,0.000000,,2013-02-10 08:43:00,
2013-02-10 02:52:00,66.0,64.0,-100.00,SE,145,6.0,14.0,93,0.00,,,0.00,0.000000,,2013-02-10 08:52:00,
2013-02-10 03:02:00,66.0,64.0,-100.00,SE,145,6.0,14.0,93,0.00,,,0.00,0.000000,,2013-02-10 09:02:00,
2013-02-10 03:32:00,66.0,65.0,-100.00,SSE,151,7.0,15.0,96,0.01,,,0.01,0.000000,,2013-02-10 09:32:00,
2013-02-10 03:42:00,66.0,65.0,-100.00,SSE,151,7.0,15.0,96,0.01,,,0.01,0.000000,,2013-02-10 09:42:00,
2013-02-10 03:52:00,66.0,65.0,-100.00,SSE,151,7.0,15.0,96,0.01,,,0.01,0.000000,,2013-02-10 09:52:00,
2013-02-10 04:01:00,66.0,65.0,-100.00,SSE,151,7.0,15.0,96,0.01,,,0.01,0.000000,,2013-02-10 10:01:00,
2013-02-10 04:32:00,67.0,66.0,-100.00,SSE,162,7.0,17.0,96,0.00,,,0.01,0.000000,,2013-02-10 10:32:00,
2013-02-10 04:42:00,67.0,66.0,-100.00,SSE,162,7.0,17.0,96,0.00,,,0.01,0.000000,,2013-02-10 10:42:00,
2013-02-10 04:52:00,67.0,66.0,-100.00,SSE,162,7.0,17.0,96,0.00,,,0.01,0.000000,,2013-02-10 10:52:00,
2013-02-10 05:01:00,67.0,66.0,-100.00,SSE,162,7.0,17.0,96,0.00,,,0.01,0.000000,,2013-02-10 11:01:00,
2013-02-10 05:32:00,68.0,67.0,-100.00,SSE,163,10.0,19.0,96,0.01,,,0.02,0.000000,,2013-02-10 11:32:00,
2013-02-10 05:42:00,68.0,67.0,-100.00,SSE,163,10.0,19.0,96,0.01,,,0.02,0.000000,,2013-02-10 11:42:00,
2013-02-10 05:52:00,68.0,67.0,-100.00,SSE,163,10.0,19.0,96,0.01,,,0.02,0.000000,,2013-02-10 11:52:00,
2013-02-10 06:02:00,68.0,67.0,-100.00,SSE,163,10.0,19.0,96,0.01,,,0.02,0.000000,,2013-02-10 12:02:00,
2013-02-10 09:32:00,72.0,69.0,-100.00,South,184,7.0,18.0,89,-99.99,,,0.02,33.000000,,2013-02-10 15:32:00,
2013-02-10 09:42:00,72.0,69.0,-100.00,South,184,7.0,18.0,89,-99.99,,,0.02,33.000000,,2013-02-10 15:42:00,
2013-02-10 09:52:00,72.0,69.0,-100.00,South,184,7.0,18.0,89,-99.99,,,0.02,33.000000,,2013-02-10 15:52:00,
2013-02-10 10:02:00,72.0,69.0,-100.00,South,184,7.0,18.0,89,-99.99,,,0.02,33.000000,,2013-02-10 16:02:00,
2013-02-10 10:32:00,72.0,67.0,-100.00,South,177,9.0,16.0,85,0.00,,,0.02,25.000000,,2013-02-10 16:32:00,
2013-02-10 10:42:00,72.0,67.0,-100.00,South,177,9.0,16.0,85,0.00,,,0.02,25.000000,,2013-02-10 16:42:00,
2013-02-10 10:52:00,72.0,67.0,-100.00,South,177,9.0,16.0,85,0.00,,,0.02,25.000000,,2013-02-10 16:52:00,
2013-02-10 11:02:00,72.0,67.0,-100.00,South,177,9.0,16.0,85,0.00,,,0.02,25.000000,,2013-02-10 17:02:00,
2013-02-10 11:32:00,72.0,68.0,-100.00,South,189,11.0,22.0,88,0.00,,,0.02,28.000000,,2013-02-10 17:32:00,
2013-02-10 11:42:00,72.0,68.0,-100.00,South,189,11.0,22.0,88,0.00,,,0.02,28.000000,,2013-02-10 17:42:00,
2013-02-10 11:52:00,72.0,68.0,-100.00,South,189,11.0,22.0,88,0.00,,,0.02,28.000000,,2013-02-10 17:52:00,
2013-02-10 12:02:00,72.0,68.0,-100.00,South,189,11.0,22.0,88,0.00,,,0.02,28.000000,,2013-02-10 18:02:00,
2013-02-10 12:32:00,62.0,60.0,-100.00,NW,306,8.0,31.0,92,0.33,,,0.35,16.000000,,2013-02-10 18:32:00,
2013-02-10 12:42:00,62.0,60.0,-100.00,NW,306,8.0,31.0,92,0.33,,,0.35,16.000000,,2013-02-10 18:42:00,
2013-02-10 12:52:00,62.0,60.0,-100.00,NW,306,8.0,31.0,92,0.33,,,0.35,16.000000,,2013-02-10 18:52:00,
2013-02-10 13:02:00,62.0,60.0,-100.00,NW,306,8.0,31.0,92,0.33,,,0.35,16.000000,,2013-02-10 19:02:00,
2013-02-10 13:32:00,60.0,58.0,-100.00,West,265,4.0,14.0,93,0.10,,,-99.99,80.000000,,2013-02-10 19:32:00,
2013-02-10 13:43:00,60.0,58.0,-100.00,West,265,4.0,14.0,93,0.10,,,-99.99,80.000000,,2013-02-10 19:43:00,
2013-02-10 13:52:00,60.0,58.0,-100.00,West,265,4.0,14.0,93,0.10,,,-99.99,80.000000,,2013-02-10 19:52:00,
2013-02-10 14:02:00,60.0,58.0,-100.00,West,265,4.0,14.0,93,0.10,,,-99.99,80.000000,,2013-02-10 20:02:00,
2013-02-10 14:32:00,62.0,60.0,-100.00,WSW,245,2.0,9.0,92,0.02,,,0.47,107.000000,,2013-02-10 20:32:00,
2013-02-10 14:42:00,62.0,60.0,-100.00,WSW,245,2.0,9.0,92,0.02,,,0.47,107.000000,,2013-02-10 20:42:00,
2013-02-10 14:52:00,62.0,60.0,-100.00,WSW,245,2.0,9.0,92,0.02,,,0.47,107.000000,,2013-02-10 20:52:00,
2013-02-10 15:02:00,62.0,60.0,-100.00,WSW,245,2.0,9.0,92,0.02,,,0.47,107.000000,,2013-02-10 21:02:00,
2013-02-10 15:32:00,62.0,60.0,-100.00,WNW,294,2.0,7.0,94,0.00,,,0.47,60.000000,,2013-02-10 21:32:00,
2013-02-10 15:42:00,62.0,60.0,-100.00,WNW,294,2.0,7.0,94,0.00,,,0.47,60.000000,,2013-02-10 21:42:00,
2013-02-10 15:52:00,62.0,60.0,-100.00,WNW,294,2.0,7.0,94,0.00,,,0.47,60.000000,,2013-02-10 21:52:00,
2013-02-10 16:02:00,62.0,60.0,-100.00,WNW,294,2.0,7.0,94,0.00,,,0.47,60.000000,,2013-02-10 22:02:00,
2013-02-10 16:32:00,63.0,60.0,-100.00,East,87,2.0,4.0,90,0.00,,,0.47,72.000000,,2013-02-10 22:32:00,
2013-02-10 16:42:00,63.0,60.0,-100.00,East,87,2.0,4.0,90,0.00,,,0.47,72.000000,,2013-02-10 22:42:00,
2013-02-10 16:52:00,63.0,60.0,-100.00,East,87,2.0,4.0,90,0.00,,,0.47,72.000000,,2013-02-10 22:52:00,
2013-02-10 17:02:00,63.0,60.0,-100.00,East,87,2.0,4.0,90,0.00,,,0.47,72.000000,,2013-02-10 23:02:00,
2013-02-10 17:32:00,63.0,61.0,-100.00,WNW,299,1.0,5.0,92,0.00,,,0.47,44.000000,,2013-02-10 23:32:00,
2013-02-10 17:42:00,63.0,61.0,-100.00,WNW,299,1.0,5.0,92,0.00,,,0.47,44.000000,,2013-02-10 23:42:00,
2013-02-10 17:52:00,63.0,61.0,-100.00,WNW,299,1.0,5.0,92,0.00,,,0.47,44.000000,,2013-02-10 23:52:00,
2013-02-10 18:02:00,63.0,61.0,-100.00,WNW,299,1.0,5.0,92,0.00,,,0.47,44.000000,,2013-02-11 00:02:00,
2013-02-10 18:32:00,62.0,61.0,-100.00,North,11,2.0,4.0,96,0.00,,,0.47,7.000000,,2013-02-11 00:32:00,
2013-02-10 18:42:00,62.0,61.0,-100.00,North,11,2.0,4.0,96,0.00,,,0.47,7.000000,,2013-02-11 00:42:00,
2013-02-10 18:52:00,62.0,61.0,-100.00,North,11,2.0,4.0,96,0.00,,,0.47,7.000000,,2013-02-11 00:52:00,
2013-02-10 19:01:00,62.0,61.0,-100.00,North,11,2.0,4.0,96,0.00,,,0.47,7.000000,,2013-02-11 01:01:00,
2013-02-10 20:32:00,61.0,60.0,-100.00,ENE,68,3.0,5.0,98,-99.99,,,0.47,0.000000,,2013-02-11 02:32:00,
2013-02-10 20:42:00,61.0,60.0,-100.00,ENE,68,3.0,5.0,98,-99.99,,,0.47,0.000000,,2013-02-11 02:42:00,
2013-02-10 20:52:00,61.0,60.0,-100.00,ENE,68,3.0,5.0,98,-99.99,,,0.47,0.000000,,2013-02-11 02:52:00,
2013-02-10 21:02:00,61.0,60.0,-100.00,ENE,68,3.0,5.0,98,-99.99,,,0.47,0.000000,,2013-02-11 03:02:00,
2013-02-10 21:32:00,61.0,60.0,-100.00,ENE,62,2.0,6.0,98,0.00,,,0.47,0.000000,,2013-02-11 03:32:00,
2013-02-10 21:42:00,61.0,60.0,-100.00,ENE,62,2.0,6.0,98,0.00,,,0.47,0.000000,,2013-02-11 03:42:00,
2013-02-10 21:52:00,61.0,60.0,-100.00,ENE,62,2.0,6.0,98,0.00,,,0.47,0.000000,,2013-02-11 03:52:00,
2013-02-10 22:01:00,61.0,60.0,-100.00,ENE,62,2.0,6.0,98,0.00,,,0.47,0.000000,,2013-02-11 04:01:00,
2013-02-10 22:32:00,60.0,59.0,-100.00,North,1,2.0,6.0,98,0.00,,,0.47,0.000000,,2013-02-11 04:32:00,
2013-02-10 22:42:00,60.0,59.0,-100.00,North,1,2.0,6.0,98,0.00,,,0.47,0.000000,,2013-02-11 04:42:00,
2013-02-10 22:52:00,60.0,59.0,-100.00,North,1,2.0,6.0,98,0.00,,,0.47,0.000000,,2013-02-11 04:52:00,
2013-02-10 23:01:00,60.0,59.0,-100.00,North,1,2.0,6.0,98,0.00,,,0.47,0.000000,,2013-02-11 05:01:00,
2013-02-10 23:32:00,60.0,59.0,-100.00,NW,316,2.0,7.0,98,0.00,,,0.47,0.000000,,2013-02-11 05:32:00,
2013-02-10 23:42:00,60.0,59.0,-100.00,NW,316,2.0,7.0,98,0.00,,,0.47,0.000000,,2013-02-11 05:42:00,
2013-02-10 23:53:00,60.0,59.0,-100.00,NW,316,2.0,7.0,98,0.00,,,0.47,0.000000,,2013-02-11 05:53:00,